Regional Weather Roundup
Issued by NWS Binghamton, NY

Home | Current Version | Previous Version | Text Only | Print | Product List | Glossary On
Versions: 1 2 3 4 5 6 7 8 9 10 11 12 13 14 15 16 17 18 19 20 21 22 23 24 25 26 27 28 29 30 31 32 33 34 35 36 37 38 39 40 41 42 43 44 45 46 47 48 49 50
000
ASUS41 KBGM 110310
RWRBGM

REGIONAL WEATHER ROUNDUP
NATIONAL WEATHER SERVICE BINGHAMTON NY
1000 PM EST WED FEB 10 2016

Note: "fair" indicates few or no clouds below 12,000 feet with no
significant weather and/or obstructions to visibility.

* = Station(s) that does not report precipitation, such as rain,
snow, etc, also no thunder or fog.

!NYZ009-015>018-022>025-036-037-044>046-055>057-062-110400
...CENTRAL NEW YORK...

CITY           SKY/WX    TMP DP  RH WIND       PRES   REMARKS
BINGHAMTON     CLOUDY    19   6  57 NW15      29.67R WCI   5
CORTLAND       CLOUDY    23  12  63 W9        29.71R WCI  13
DANSVILLE      CLOUDY    19   6  57 W8G20     29.80R WCI   9
ELMIRA         CLOUDY    21   5  50 W13G28    29.77R WCI   9
ITHACA         CLOUDY    19   8  62 W15       29.74R WCI   5
HORNELL        CLOUDY    18   3  53 W13G18    29.80S WCI   4
MONTICELLO     CLOUDY    25  16  68 W10       29.66R WCI  15
NORWICH        CLOUDY    21  12  68 W8        29.70R WCI  12
PENN YAN       CLOUDY    20   5  52 W18G26    29.74R WCI   5
ROME           CLOUDY    24  17  74 W15       29.71R WCI  11
SYRACUSE       MOCLDY    22  13  68 W18       29.73R WCI   7
$$

!PAZ038>040-043-044-047-048-072-110400
...NORTHEAST PENNSYLVANIA...

CITY           SKY/WX    TMP DP  RH WIND       PRES   REMARKS
HAZLETON       LGT SNOW  21  14  73 W10G20    29.74R WCI  10
SCRANTON       CLOUDY    24  15  68 SW14      29.73R WCI  12
$$
&&
KEY
WCI = WIND CHILL INDEX
VSB = VISIBILITY
HX  = HEAT INDEX
$$



USA.gov is the U.S. government's official web portal to all federal, state and local government web resources and services.